Hourly Data Report for June 19, 2018

LONDON CS
ONTARIO
Current Station Operator: ECCC - MSC

43°02'00.000" N
81°09'00.000" W
278.00 m
6144478
71622
WSN

Download Data

Hourly Data (June 2018)
Hourly Data Report for June 19, 2018
TIME Temp Definition
°C
Dew Point Definition
°C
Rel Hum Definition
%
Wind Dir Definition
10's deg

Wind Spd Definition
km/h
Visibility Definition
km
Stn Press Definition
kPa
Hmdx Definition


Wind Chill Definition


Weather Definition


00:00 20.6 19.0 91 LegendMM LegendMM   98.03 27   LegendNANA
01:00 20.3 18.2 88 LegendMM LegendMM   98.07 26   LegendNANA
02:00 19.4 15.7 79 LegendMM LegendMM   98.15     LegendNANA
03:00 18.4 14.1 76 LegendMM LegendMM   98.18     LegendNANA
04:00 17.4 13.3 77 LegendMM LegendMM   98.21     LegendNANA
05:00 16.8 13.1 79 LegendMM LegendMM   98.30     LegendNANA
06:00 17.3 13.3 77 LegendMM LegendMM   98.37     LegendNANA
07:00 19.5 13.6 69 LegendMM LegendMM   98.41     LegendNANA
08:00 20.7 14.3 67 LegendMM LegendMM   98.41     LegendNANA
09:00 22.1 14.6 62 LegendMM LegendMM   98.40 26   LegendNANA
10:00 23.0 14.0 57 LegendMM LegendMM   98.39 26   LegendNANA
11:00 24.1 14.3 54 LegendMM LegendMM   98.39 28   LegendNANA
12:00 24.4 13.2 50 LegendMM LegendMM   98.37 27   LegendNANA
13:00 25.6 13.7 48 LegendMM LegendMM   98.35 29   LegendNANA
14:00 25.4 11.9 43 LegendMM LegendMM   98.32 28   LegendNANA
15:00 25.6 12.1 43 LegendMM LegendMM   98.25 28   LegendNANA
16:00 25.4 11.9 43 LegendMM LegendMM   98.21 28   LegendNANA
17:00 23.3 17.4 69 LegendMM LegendMM   98.16 29   LegendNANA
18:00 21.8 17.0 74 LegendMM LegendMM   98.14 27   LegendNANA
19:00 20.7 16.5 77 LegendMM LegendMM   98.19 26   LegendNANA
20:00 20.2 16.0 77 LegendMM LegendMM   98.23 25   LegendNANA
21:00 19.5 15.6 79 LegendMM LegendMM   98.23     LegendNANA
22:00 19.3 15.3 78 LegendMM LegendMM   98.18     LegendNANA
23:00 19.0 15.2 79 LegendMM LegendMM   98.16     LegendNANA

Notes on Data Quality.

Legend

  • E = Estimated
  • M = Missing
  • NA = Not Available*
  • [empty] = Indicates an unobserved value
Date modified: